Location: Sevilla
(37.3933°N, 5.9839°W)
Time: 11:53:05
(UTC+02:00)

Tiros 1 despin weight - Pass Details

Date: 30 June 2024
Orbit: 576 x 620 km, 48.2° (Epoch: 21 July)

Event Time Altitude Azimuth Distance (km) Brightness Sun altitude
Rises 12:53:39 0° 273° (W) 2,870 ? 65.3°
Reaches altitude 10° 12:56:14 10° 286° (WNW) 1,973 ? 65.7°
Maximum altitude 13:00:06 27° 344° (NNW) 1,201 ? 66.4°
Drops below altitude 10° 13:04:00 10° 43° (NE) 1,987 ? 67.1°
Sets 13:06:37 0° 55° (NE) 2,896 ? 67.5°
